"Timestamp (GMT)","Weight (kg)","Temperature (C)",Battery,Signal,"MAC Address"
"2019-09-09 04:59:59",108.18289032024,27.022222222222,466,59,d8b04cdb5218
"2019-09-09 06:03:05",107.95609180804,25.088888888889,473,62,d8b04cdb5218
"2019-09-09 06:59:58",108.1375306178,25.088888888889,466,41,d8b04cdb5218
"2019-09-09 08:00:03",108.18289032024,32.177777777778,464,37,d8b04cdb5218
"2019-09-09 08:00:08",108.18289032024,32.177777777778,465,34,d8b04cdb5218
"2019-09-09 09:00:03",108.31896942756,26.377777777778,464,37,d8b04cdb5218
"2019-09-09 09:59:55",108.5911276422,21.222222222222,464,30,d8b04cdb5218
"2019-09-09 11:00:06",108.68184704708,18.322222222222,463,45,d8b04cdb5218
"2019-09-09 11:59:53",108.68184704708,15.744444444444,462,45,d8b04cdb5218
"2019-09-09 13:00:04",108.68184704708,13.811111111111,462,41,d8b04cdb5218
"2019-09-09 13:59:52",108.68184704708,14.133333333333,461,52,d8b04cdb5218
"2019-09-09 15:00:03",108.68184704708,14.455555555556,460,49,d8b04cdb5218
"2019-09-09 15:59:55",108.68184704708,11.55,460,49,d8b04cdb5218
"2019-09-09 17:00:02",108.63648734464,10.905555555556,459,56,d8b04cdb5218
"2019-09-09 17:59:59",108.63648734464,9.6166666666667,458,49,d8b04cdb5218
"2019-09-09 18:59:58",108.63648734464,8.65,457,56,d8b04cdb5218
"2019-09-09 20:00:03",108.63648734464,8.3277777777778,456,52,d8b04cdb5218
"2019-09-09 20:59:51",108.5911276422,7.3611111111111,456,52,d8b04cdb5218
"2019-09-09 22:00:03",108.5911276422,7.0388888888889,455,56,d8b04cdb5218
"2019-09-09 22:59:54",108.54576793976,6.7166666666667,454,37,d8b04cdb5218
"2019-09-09 23:59:59",108.50040823732,8.65,453,41,d8b04cdb5218
"2019-09-10 00:00:08",108.50040823732,8.65,454,41,d8b04cdb5218
"2019-09-10 00:59:59",108.45504853488,12.844444444444,453,41,d8b04cdb5218
"2019-09-10 01:59:59",108.45504853488,18.644444444444,453,49,d8b04cdb5218
"2019-09-10 02:59:56",108.40968883244,22.511111111111,452,30,d8b04cdb5218
"2019-09-10 04:00:00",108.40968883244,36.366666666667,452,41,d8b04cdb5218
"2019-09-10 04:00:08",108.40968883244,36.366666666667,452,52,d8b04cdb5218
"2019-09-10 05:00:00",108.40968883244,25.088888888889,452,41,d8b04cdb5218
"2019-09-10 05:59:56",108.45504853488,22.833333333333,452,49,d8b04cdb5218
"2019-09-10 07:00:01",108.5911276422,21.866666666667,452,37,d8b04cdb5218
"2019-09-10 07:59:59",108.72720674952,29.922222222222,451,41,d8b04cdb5218
"2019-09-10 08:59:56",109.04472466661,22.188888888889,450,45,d8b04cdb5218
"2019-09-10 10:00:03",109.18080377393,19.933333333333,450,34,d8b04cdb5218
"2019-09-10 10:59:54",109.22616347637,18.644444444444,447,30,d8b04cdb5218
"2019-09-10 12:00:11",109.13544407149,18,447,52,d8b04cdb5218
"2019-09-10 12:59:46",109.13544407149,17.355555555556,447,49,d8b04cdb5218
"2019-09-10 14:00:03",109.13544407149,17.033333333333,447,56,d8b04cdb5218
"2019-09-10 14:59:51",109.09008436905,17.355555555556,447,56,d8b04cdb5218
"2019-09-10 16:00:00",109.04472466661,17.355555555556,447,49,d8b04cdb5218
"2019-09-10 16:00:09",109.04472466661,17.355555555556,447,45,d8b04cdb5218
"2019-09-10 17:00:00",108.99936496417,17.033333333333,447,49,d8b04cdb5218
"2019-09-10 18:00:04",108.95400526173,17.355555555556,446,59,d8b04cdb5218
"2019-09-10 18:59:53",108.95400526173,17.033333333333,446,52,d8b04cdb5218
"2019-09-10 20:00:01",108.95400526173,17.355555555556,445,49,d8b04cdb5218
"2019-09-10 20:00:08",108.95400526173,17.355555555556,445,49,d8b04cdb5218
"2019-09-10 21:00:01",108.90864555929,17.355555555556,445,49,d8b04cdb5218
"2019-09-10 21:59:56",108.90864555929,17.355555555556,445,45,d8b04cdb5218
"2019-09-10 23:00:02",108.90864555929,17.033333333333,444,52,d8b04cdb5218
"2019-09-10 23:59:52",108.90864555929,18.644444444444,444,49,d8b04cdb5218
"2019-09-11 01:00:14",108.99936496417,19.933333333333,443,37,d8b04cdb5218
"2019-09-11 01:59:46",108.99936496417,22.833333333333,443,34,d8b04cdb5218
"2019-09-11 03:00:04",108.95400526173,23.477777777778,443,37,d8b04cdb5218
"2019-09-11 03:59:55",108.99936496417,27.022222222222,443,34,d8b04cdb5218
"2019-09-11 04:59:51",108.99936496417,23.8,443,37,d8b04cdb5218
"2019-09-11 06:00:00",109.09008436905,22.833333333333,442,41,d8b04cdb5218
"2019-09-11 06:00:09",109.09008436905,22.833333333333,443,49,d8b04cdb5218
"2019-09-11 07:00:00",109.27152317881,22.833333333333,442,41,d8b04cdb5218
"2019-09-11 07:59:54",109.40760228613,27.344444444444,442,30,d8b04cdb5218
"2019-09-11 08:59:54",109.63440079833,22.833333333333,442,34,d8b04cdb5218
"2019-09-11 10:00:06",109.81583960809,20.9,442,59,d8b04cdb5218
"2019-09-11 10:59:53",109.81583960809,19.288888888889,442,56,d8b04cdb5218
"2019-09-11 12:00:08",109.77047990565,18.644444444444,442,59,d8b04cdb5218
"2019-09-11 14:00:08",109.72512020321,18.322222222222,441,59,d8b04cdb5218
"2019-09-11 14:59:49",109.72512020321,18.322222222222,440,56,d8b04cdb5218
"2019-09-11 16:00:01",109.67976050077,17.677777777778,439,59,d8b04cdb5218
"2019-09-11 16:00:11",109.67976050077,17.677777777778,440,59,d8b04cdb5218
"2019-09-11 17:00:01",109.67976050077,17.033333333333,439,59,d8b04cdb5218
"2019-09-11 17:59:56",109.63440079833,17.033333333333,439,59,d8b04cdb5218
"2019-09-11 19:00:05",109.58904109589,16.388888888889,439,59,d8b04cdb5218
"2019-09-11 19:59:52",109.58904109589,16.711111111111,438,59,d8b04cdb5218
"2019-09-11 21:00:02",109.54368139345,17.033333333333,438,66,d8b04cdb5218
"2019-09-11 21:59:55",109.54368139345,17.033333333333,438,66,d8b04cdb5218
"2019-09-11 23:00:05",109.49832169101,17.033333333333,437,62,d8b04cdb5218
"2019-09-11 23:59:53",109.49832169101,18,437,66,d8b04cdb5218
"2019-09-12 05:00:22",109.36224258369,25.411111111111,436,59,d8b04cdb5218
"2019-09-12 06:00:22",109.45296198857,24.122222222222,436,59,d8b04cdb5218
"2019-09-12 06:59:46",109.72512020321,22.511111111111,436,62,d8b04cdb5218
"2019-09-12 08:00:10",110.04263812029,21.544444444444,436,59,d8b04cdb5218
"2019-09-12 08:59:46",110.22407693006,20.577777777778,436,62,d8b04cdb5218
"2019-09-12 10:00:03",110.36015603738,19.933333333333,435,56,d8b04cdb5218
"2019-09-12 11:00:03",110.36015603738,19.288888888889,435,56,d8b04cdb5218
"2019-09-12 11:59:54",110.31479633494,18.322222222222,435,59,d8b04cdb5218
"2019-09-12 13:00:01",110.31479633494,17.033333333333,435,59,d8b04cdb5218
"2019-09-12 13:59:53",110.2694366325,17.033333333333,434,59,d8b04cdb5218
"2019-09-12 15:00:05",110.22407693006,16.066666666667,434,59,d8b04cdb5218
"2019-09-12 15:59:51",110.22407693006,15.1,434,59,d8b04cdb5218
"2019-09-12 17:00:03",110.17871722761,14.133333333333,433,59,d8b04cdb5218
"2019-09-12 17:59:53",110.17871722761,13.488888888889,433,59,d8b04cdb5218
"2019-09-12 19:00:03",110.17871722761,13.811111111111,433,59,d8b04cdb5218
"2019-09-12 19:59:52",110.13335752517,14.777777777778,432,59,d8b04cdb5218
"2019-09-12 21:00:01",110.08799782273,15.422222222222,432,62,d8b04cdb5218
"2019-09-12 21:59:53",110.08799782273,16.066666666667,432,59,d8b04cdb5218
"2019-09-12 23:00:05",110.04263812029,16.066666666667,432,59,d8b04cdb5218
"2019-09-12 23:59:51",109.99727841785,16.711111111111,432,62,d8b04cdb5218
"2019-09-13 01:00:02",109.86119931053,18.966666666667,431,56,d8b04cdb5218
"2019-09-13 01:59:52",109.77047990565,21.866666666667,431,56,d8b04cdb5218
"2019-09-13 03:00:06",109.67976050077,23.8,431,59,d8b04cdb5218
"2019-09-13 03:59:51",109.58904109589,32.177777777778,431,59,d8b04cdb5218
"2019-09-13 05:00:04",109.81583960809,24.444444444444,431,59,d8b04cdb5218
"2019-09-13 05:59:53",109.95191871541,23.477777777778,432,59,d8b04cdb5218
"2019-09-13 07:00:06",110.22407693006,24.122222222222,431,59,d8b04cdb5218
"2019-09-13 07:59:51",110.45087544226,30.566666666667,431,59,d8b04cdb5218
"2019-09-13 09:00:05",110.81375306178,24.444444444444,431,56,d8b04cdb5218
"2019-09-13 09:59:50",111.08591127642,21.544444444444,431,52,d8b04cdb5218
"2019-09-13 10:59:59",111.08591127642,19.611111111111,431,52,d8b04cdb5218
"2019-09-13 11:00:06",111.08591127642,19.611111111111,431,49,d8b04cdb5218
"2019-09-13 11:59:59",111.13127097886,18.644444444444,431,52,d8b04cdb5218
"2019-09-13 12:59:54",111.1766306813,18.322222222222,430,59,d8b04cdb5218
"2019-09-13 14:00:01",111.13127097886,18.322222222222,430,59,d8b04cdb5218
"2019-09-13 14:59:54",111.08591127642,18.322222222222,430,56,d8b04cdb5218
"2019-09-13 15:59:59",111.08591127642,18.322222222222,429,59,d8b04cdb5218
"2019-09-13 16:00:07",111.08591127642,18.322222222222,430,62,d8b04cdb5218
"2019-09-13 16:59:59",111.04055157398,17.355555555556,429,59,d8b04cdb5218
"2019-09-13 17:59:58",110.99519187154,16.711111111111,429,62,d8b04cdb5218
"2019-09-13 19:00:06",110.99519187154,16.066666666667,429,62,d8b04cdb5218
"2019-09-13 19:59:54",110.9498321691,16.388888888889,429,62,d8b04cdb5218
"2019-09-13 21:00:05",110.85911276422,17.355555555556,428,59,d8b04cdb5218
"2019-09-13 21:59:52",110.85911276422,17.677777777778,428,59,d8b04cdb5218
"2019-09-13 23:00:05",110.81375306178,18,428,56,d8b04cdb5218
"2019-09-13 23:59:53",110.76839335934,18,427,59,d8b04cdb5218
"2019-09-14 01:00:02",110.67767395446,18.322222222222,427,59,d8b04cdb5218
"2019-09-14 01:59:54",110.58695454958,19.611111111111,427,59,d8b04cdb5218
"2019-09-14 03:00:02",110.58695454958,19.933333333333,427,59,d8b04cdb5218
"2019-09-14 03:59:54",110.40551573982,21.222222222222,427,59,d8b04cdb5218
"2019-09-14 05:00:01",110.36015603738,21.866666666667,427,59,d8b04cdb5218
"2019-09-14 05:59:54",110.45087544226,21.866666666667,427,62,d8b04cdb5218
"2019-09-14 07:00:07",110.58695454958,21.222222222222,427,62,d8b04cdb5218
"2019-09-14 07:59:51",110.90447246666,20.255555555556,427,62,d8b04cdb5218
"2019-09-14 09:00:02",111.08591127642,19.611111111111,427,56,d8b04cdb5218
"2019-09-14 09:59:49",111.26735008618,18.966666666667,427,56,d8b04cdb5218
"2019-09-14 11:00:01",111.26735008618,17.677777777778,426,56,d8b04cdb5218
"2019-09-14 11:59:53",111.26735008618,17.033333333333,426,49,d8b04cdb5218
"2019-09-14 13:00:03",111.26735008618,16.066666666667,426,37,d8b04cdb5218
"2019-09-14 13:00:05",111.26735008618,16.066666666667,426,45,d8b04cdb5218
"2019-09-14 14:00:03",111.26735008618,14.777777777778,426,37,d8b04cdb5218
"2019-09-14 14:59:52",111.26735008618,13.488888888889,426,41,d8b04cdb5218
"2019-09-14 15:59:59",111.26735008618,11.55,426,41,d8b04cdb5218
"2019-09-14 16:00:09",111.26735008618,11.55,426,41,d8b04cdb5218
"2019-09-14 16:59:59",111.26735008618,10.905555555556,426,41,d8b04cdb5218
"2019-09-14 17:59:54",111.26735008618,9.9388888888889,425,41,d8b04cdb5218
"2019-09-14 19:00:01",111.26735008618,9.9388888888889,425,41,d8b04cdb5218
"2019-09-14 19:59:52",111.22199038374,9.9388888888889,425,49,d8b04cdb5218
"2019-09-14 21:00:04",111.22199038374,8.9722222222222,424,45,d8b04cdb5218
"2019-09-14 21:59:55",111.22199038374,8.65,424,41,d8b04cdb5218
"2019-09-14 22:59:55",111.1766306813,8.3277777777778,424,41,d8b04cdb5218
"2019-09-15 00:59:58",110.81375306178,13.488888888889,424,66,d8b04cdb5218
"2019-09-15 01:59:50",110.67767395446,17.033333333333,424,66,d8b04cdb5218
"2019-09-15 03:00:04",110.63231425202,20.255555555556,425,62,d8b04cdb5218
"2019-09-15 03:00:05",110.63231425202,20.255555555556,424,66,d8b04cdb5218
"2019-09-15 04:00:04",110.54159484714,27.666666666667,425,62,d8b04cdb5218
"2019-09-15 05:00:06",110.63231425202,22.511111111111,425,69,d8b04cdb5218
"2019-09-15 05:59:52",110.7230336569,21.544444444444,425,69,d8b04cdb5218
"2019-09-15 07:00:02",108.22825002268,21.866666666667,425,66,d8b04cdb5218
"2019-09-15 07:59:52",108.40968883244,27.988888888889,425,66,d8b04cdb5218
"2019-09-15 09:00:01",108.77256645196,23.477777777778,425,66,d8b04cdb5218
"2019-09-15 09:59:53",108.99936496417,19.933333333333,425,66,d8b04cdb5218
"2019-09-15 11:00:05",109.09008436905,16.388888888889,425,62,d8b04cdb5218
"2019-09-15 11:59:52",109.09008436905,14.455555555556,425,72,d8b04cdb5218
"2019-09-15 13:00:01",109.09008436905,14.133333333333,424,72,d8b04cdb5218
"2019-09-15 13:59:49",109.09008436905,13.488888888889,424,72,d8b04cdb5218
"2019-09-15 15:00:04",109.04472466661,13.488888888889,424,72,d8b04cdb5218
"2019-09-15 15:59:51",109.04472466661,13.488888888889,424,69,d8b04cdb5218
"2019-09-15 17:00:02",108.99936496417,13.488888888889,423,75,d8b04cdb5218
"2019-09-15 17:59:53",108.95400526173,13.166666666667,423,72,d8b04cdb5218
"2019-09-15 19:00:03",108.95400526173,12.844444444444,423,72,d8b04cdb5218
"2019-09-15 19:59:51",108.90864555929,13.166666666667,423,72,d8b04cdb5218
"2019-09-15 21:00:07",108.90864555929,13.166666666667,422,72,d8b04cdb5218
"2019-09-15 21:59:51",108.86328585684,13.166666666667,422,72,d8b04cdb5218
"2019-09-15 23:00:06",108.86328585684,13.488888888889,422,66,d8b04cdb5218
"2019-09-15 23:59:54",108.72720674952,15.422222222222,422,62,d8b04cdb5218
"2019-09-16 01:00:02",108.72720674952,16.388888888889,422,66,d8b04cdb5218
"2019-09-16 01:59:53",108.72720674952,19.611111111111,422,66,d8b04cdb5218
"2019-09-16 03:00:03",108.68184704708,23.477777777778,422,66,d8b04cdb5218
"2019-09-16 03:59:55",108.72720674952,36.366666666667,424,62,d8b04cdb5218
"2019-09-16 05:00:00",108.77256645196,26.377777777778,423,62,d8b04cdb5218
"2019-09-16 05:59:51",108.90864555929,25.411111111111,424,59,d8b04cdb5218
"2019-09-16 07:00:03",109.09008436905,25.088888888889,424,62,d8b04cdb5218
"2019-09-16 07:59:54",109.27152317881,24.122222222222,424,59,d8b04cdb5218
"2019-09-16 09:00:05",109.54368139345,24.122222222222,423,66,d8b04cdb5218
"2019-09-16 09:59:53",109.81583960809,21.544444444444,423,62,d8b04cdb5218
"2019-09-16 11:00:04",109.81583960809,18.644444444444,423,59,d8b04cdb5218
"2019-09-16 11:59:52",109.81583960809,16.711111111111,423,59,d8b04cdb5218
"2019-09-16 13:00:02",109.81583960809,15.1,423,62,d8b04cdb5218
"2019-09-16 13:59:58",109.81583960809,13.811111111111,422,62,d8b04cdb5218
"2019-09-16 14:59:51",109.81583960809,14.133333333333,423,62,d8b04cdb5218
"2019-09-16 16:00:00",109.81583960809,13.166666666667,422,62,d8b04cdb5218
"2019-09-16 16:00:09",109.81583960809,13.166666666667,422,62,d8b04cdb5218
"2019-09-16 17:00:00",109.81583960809,11.55,422,62,d8b04cdb5218
"2019-09-16 18:00:06",109.77047990565,11.55,422,62,d8b04cdb5218
"2019-09-16 18:59:52",109.81583960809,11.55,422,62,d8b04cdb5218
"2019-09-16 20:00:01",109.77047990565,10.905555555556,422,66,d8b04cdb5218
"2019-09-16 20:59:50",109.77047990565,10.261111111111,422,66,d8b04cdb5218
"2019-09-16 22:00:00",109.72512020321,9.6166666666667,421,62,d8b04cdb5218
"2019-09-16 22:00:10",109.72512020321,9.6166666666667,421,62,d8b04cdb5218
"2019-09-16 23:00:00",109.72512020321,9.9388888888889,421,62,d8b04cdb5218
"2019-09-16 23:59:54",109.67976050077,11.55,421,69,d8b04cdb5218
"2019-09-17 00:59:58",109.63440079833,16.066666666667,421,66,d8b04cdb5218
"2019-09-17 01:59:52",109.58904109589,20.255555555556,421,66,d8b04cdb5218
"2019-09-17 03:00:01",109.54368139345,21.866666666667,421,66,d8b04cdb5218
"2019-09-17 03:59:56",109.67976050077,32.177777777778,422,66,d8b04cdb5218
"2019-09-17 05:00:01",109.54368139345,23.477777777778,421,66,d8b04cdb5218
"2019-09-17 05:59:53",109.72512020321,21.866666666667,422,66,d8b04cdb5218
"2019-09-17 07:00:02",109.95191871541,22.188888888889,422,66,d8b04cdb5218
"2019-09-17 07:59:55",110.2694366325,21.544444444444,421,62,d8b04cdb5218
"2019-09-17 09:00:04",110.45087544226,19.933333333333,421,37,d8b04cdb5218
"2019-09-17 09:59:51",110.54159484714,18.322222222222,421,62,d8b04cdb5218
"2019-09-17 11:00:02",110.54159484714,17.677777777778,421,59,d8b04cdb5218
"2019-09-17 11:59:53",110.4962351447,16.388888888889,421,49,d8b04cdb5218
"2019-09-17 13:00:03",110.4962351447,15.422222222222,421,45,d8b04cdb5218
"2019-09-17 13:59:54",110.45087544226,13.811111111111,420,49,d8b04cdb5218
"2019-09-17 15:00:01",110.45087544226,12.844444444444,420,45,d8b04cdb5218
"2019-09-17 15:59:53",110.45087544226,11.55,420,49,d8b04cdb5218
"2019-09-17 17:00:03",110.45087544226,11.227777777778,420,45,d8b04cdb5218
"2019-09-17 18:00:11",110.4962351447,13.811111111111,420,49,d8b04cdb5218
"2019-09-17 18:59:42",110.4962351447,13.811111111111,420,52,d8b04cdb5218
"2019-09-17 19:59:59",110.4962351447,13.811111111111,419,45,d8b04cdb5218
"2019-09-17 20:00:06",110.4962351447,13.811111111111,419,45,d8b04cdb5218
"2019-09-17 20:59:59",110.45087544226,15.422222222222,419,45,d8b04cdb5218
"2019-09-17 21:59:56",110.40551573982,15.1,419,56,d8b04cdb5218
"2019-09-17 23:00:09",110.2694366325,16.388888888889,419,49,d8b04cdb5218
"2019-09-17 23:59:44",110.2694366325,17.033333333333,419,59,d8b04cdb5218
"2019-09-18 01:00:01",110.31479633494,17.355555555556,419,62,d8b04cdb5218
"2019-09-18 01:59:52",110.2694366325,18.644444444444,419,62,d8b04cdb5218
"2019-09-18 03:00:03",110.58695454958,18.322222222222,419,56,d8b04cdb5218
"2019-09-18 03:59:52",110.31479633494,19.288888888889,418,45,d8b04cdb5218
"2019-09-18 05:00:01",110.4962351447,19.288888888889,418,59,d8b04cdb5218
"2019-09-18 05:59:52",110.4962351447,18.322222222222,418,59,d8b04cdb5218
"2019-09-18 07:00:01",110.4962351447,18.322222222222,418,62,d8b04cdb5218
"2019-09-18 07:59:55",110.58695454958,16.388888888889,418,59,d8b04cdb5218
"2019-09-18 09:00:00",110.63231425202,16.388888888889,418,59,d8b04cdb5218
"2019-09-18 09:59:56",110.54159484714,16.066666666667,418,37,d8b04cdb5218
"2019-09-18 11:00:05",110.63231425202,14.777777777778,418,59,d8b04cdb5218
"2019-09-18 11:59:52",110.63231425202,13.811111111111,418,49,d8b04cdb5218
"2019-09-18 13:00:00",110.7230336569,12.844444444444,417,49,d8b04cdb5218
"2019-09-18 13:00:08",110.7230336569,12.844444444444,417,59,d8b04cdb5218
"2019-09-18 14:00:00",110.54159484714,11.55,417,49,d8b04cdb5218
"2019-09-18 14:59:54",110.58695454958,11.55,418,59,d8b04cdb5218
"2019-09-18 16:00:00",110.58695454958,10.905555555556,417,72,d8b04cdb5218
"2019-09-18 16:00:08",110.58695454958,10.905555555556,418,62,d8b04cdb5218
"2019-09-18 17:00:00",110.54159484714,10.261111111111,417,72,d8b04cdb5218
"2019-09-18 17:59:55",110.54159484714,9.6166666666667,417,72,d8b04cdb5218
"2019-09-18 19:00:03",110.4962351447,9.2944444444444,417,69,d8b04cdb5218
"2019-09-18 19:59:49",110.4962351447,8.9722222222222,417,72,d8b04cdb5218
"2019-09-18 21:00:04",110.45087544226,8.65,416,72,d8b04cdb5218
"2019-09-18 21:59:54",110.45087544226,8.3277777777778,416,72,d8b04cdb5218
"2019-09-18 23:00:03",110.40551573982,8.3277777777778,415,72,d8b04cdb5218
"2019-09-18 23:59:51",110.31479633494,8.9722222222222,415,69,d8b04cdb5218
"2019-09-19 01:00:03",110.17871722761,10.905555555556,415,66,d8b04cdb5218
"2019-09-19 01:59:54",110.22407693006,15.1,415,69,d8b04cdb5218
"2019-09-19 03:00:05",110.17871722761,15.422222222222,415,72,d8b04cdb5218
"2019-09-19 03:59:51",110.13335752517,22.511111111111,415,72,d8b04cdb5218
"2019-09-19 05:00:02",110.04263812029,17.677777777778,415,66,d8b04cdb5218
"2019-09-19 05:59:52",110.17871722761,15.744444444444,415,59,d8b04cdb5218
"2019-09-19 07:00:04",110.17871722761,17.355555555556,415,69,d8b04cdb5218
"2019-09-19 07:59:52",110.31479633494,20.577777777778,415,66,d8b04cdb5218
"2019-09-19 09:00:02",110.22407693006,16.388888888889,415,62,d8b04cdb5218
"2019-09-19 09:59:52",110.2694366325,13.488888888889,415,62,d8b04cdb5218
"2019-09-19 11:00:03",110.2694366325,11.55,415,62,d8b04cdb5218
"2019-09-19 11:59:56",110.36015603738,9.6166666666667,414,66,d8b04cdb5218
"2019-09-19 13:00:02",110.36015603738,7.6833333333333,414,66,d8b04cdb5218
"2019-09-19 13:59:54",110.40551573982,6.3944444444444,414,66,d8b04cdb5218
"2019-09-19 15:00:02",110.40551573982,5.4277777777778,414,66,d8b04cdb5218
"2019-09-19 16:00:15",110.40551573982,5.1055555555556,413,72,d8b04cdb5218
"2019-09-19 16:59:42",110.40551573982,4.1388888888889,413,72,d8b04cdb5218
"2019-09-19 18:00:01",110.40551573982,3.4944444444444,412,72,d8b04cdb5218
"2019-09-19 18:00:06",110.40551573982,3.4944444444444,413,72,d8b04cdb5218
"2019-09-19 19:00:01",110.40551573982,2.85,412,72,d8b04cdb5218
"2019-09-19 19:59:57",110.40551573982,2.2055555555556,413,72,d8b04cdb5218
"2019-09-19 21:00:00",110.40551573982,2.5277777777778,412,69,d8b04cdb5218
"2019-09-19 21:00:03",110.40551573982,2.5277777777778,413,72,d8b04cdb5218
"2019-09-19 22:00:00",110.40551573982,2.2055555555556,412,69,d8b04cdb5218
"2019-09-19 22:59:59",110.40551573982,2.5277777777778,411,69,d8b04cdb5218
"2019-09-19 23:59:58",110.40551573982,5.1055555555556,412,72,d8b04cdb5218
"2019-09-20 01:00:03",110.22407693006,9.2944444444444,412,72,d8b04cdb5218
"2019-09-20 01:59:52",110.22407693006,18,412,69,d8b04cdb5218
"2019-09-20 03:00:01",110.22407693006,17.033333333333,413,66,d8b04cdb5218
"2019-09-20 03:59:54",110.31479633494,16.388888888889,413,62,d8b04cdb5218
"2019-09-20 05:00:05",110.17871722761,16.711111111111,413,62,d8b04cdb5218
"2019-09-20 05:59:52",110.13335752517,17.033333333333,413,62,d8b04cdb5218
"2019-09-20 07:00:03",109.95191871541,18.322222222222,413,66,d8b04cdb5218
"2019-09-20 07:59:52",110.22407693006,21.544444444444,413,56,d8b04cdb5218
"2019-09-20 09:00:03",110.45087544226,16.711111111111,413,59,d8b04cdb5218
"2019-09-20 09:59:52",110.4962351447,14.777777777778,413,62,d8b04cdb5218
"2019-09-20 11:00:04",110.4962351447,12.844444444444,413,62,d8b04cdb5218
"2019-09-20 11:59:51",110.4962351447,11.55,413,62,d8b04cdb5218
"2019-09-20 13:00:03",110.4962351447,10.905555555556,412,62,d8b04cdb5218
"2019-09-20 13:59:55",110.54159484714,10.261111111111,412,69,d8b04cdb5218
"2019-09-20 15:00:03",110.54159484714,9.2944444444444,412,69,d8b04cdb5218
"2019-09-20 15:59:56",110.54159484714,8.0055555555556,412,69,d8b04cdb5218
"2019-09-20 17:00:03",110.4962351447,6.7166666666667,411,69,d8b04cdb5218
"2019-09-20 17:59:54",110.4962351447,5.75,410,69,d8b04cdb5218
"2019-09-20 19:00:03",110.4962351447,4.7833333333333,411,69,d8b04cdb5218
"2019-09-20 20:00:12",110.4962351447,4.7833333333333,410,69,d8b04cdb5218
"2019-09-20 20:59:57",110.4962351447,3.8166666666667,410,69,d8b04cdb5218
"2019-09-20 21:59:57",110.4962351447,3.1722222222222,410,69,d8b04cdb5218
"2019-09-20 22:59:45",110.45087544226,4.4611111111111,410,69,d8b04cdb5218
"2019-09-21 00:00:01",110.40551573982,7.6833333333333,410,66,d8b04cdb5218
"2019-09-21 00:00:11",110.40551573982,7.6833333333333,410,69,d8b04cdb5218
"2019-09-21 01:00:01",110.31479633494,11.227777777778,410,66,d8b04cdb5218
"2019-09-21 01:59:57",110.2694366325,15.422222222222,410,62,d8b04cdb5218
"2019-09-21 03:00:02",110.17871722761,17.033333333333,411,66,d8b04cdb5218
"2019-09-21 03:59:54",110.22407693006,20.9,411,66,d8b04cdb5218
"2019-09-21 05:00:06",110.22407693006,19.611111111111,412,66,d8b04cdb5218
"2019-09-21 05:59:53",110.2694366325,18.966666666667,412,62,d8b04cdb5218
"2019-09-21 07:00:02",110.2694366325,18.644444444444,412,69,d8b04cdb5218
"2019-09-21 07:59:56",110.40551573982,21.544444444444,412,69,d8b04cdb5218
"2019-09-21 09:00:01",110.67767395446,18.966666666667,412,66,d8b04cdb5218
"2019-09-21 09:59:56",110.85911276422,16.388888888889,411,62,d8b04cdb5218
"2019-09-21 11:00:03",110.85911276422,13.166666666667,411,66,d8b04cdb5218
"2019-09-21 11:59:57",110.85911276422,10.261111111111,411,66,d8b04cdb5218
"2019-09-21 12:59:54",110.90447246666,8.65,411,66,d8b04cdb5218
"2019-09-21 14:00:05",110.90447246666,7.3611111111111,410,66,d8b04cdb5218
"2019-09-21 14:59:53",110.90447246666,6.0722222222222,410,66,d8b04cdb5218
"2019-09-21 16:00:00",110.90447246666,5.1055555555556,409,69,d8b04cdb5218
"2019-09-21 16:00:09",110.90447246666,5.1055555555556,409,66,d8b04cdb5218
"2019-09-21 17:00:00",110.90447246666,4.1388888888889,409,69,d8b04cdb5218
"2019-09-21 17:59:55",110.90447246666,3.4944444444444,409,69,d8b04cdb5218
"2019-09-21 19:00:11",110.90447246666,3.1722222222222,409,69,d8b04cdb5218
"2019-09-21 20:00:07",110.90447246666,3.1722222222222,409,69,d8b04cdb5218
"2019-09-21 20:59:38",110.90447246666,2.85,409,69,d8b04cdb5218
"2019-09-21 22:00:06",110.85911276422,2.2055555555556,408,69,d8b04cdb5218
"2019-09-21 22:59:50",110.85911276422,2.5277777777778,408,66,d8b04cdb5218
"2019-09-22 00:00:00",110.85911276422,5.75,407,66,d8b04cdb5218
"2019-09-22 00:00:11",110.85911276422,5.75,408,62,d8b04cdb5218
"2019-09-22 01:00:00",110.67767395446,10.905555555556,407,66,d8b04cdb5218
"2019-09-22 01:59:55",110.58695454958,20.255555555556,408,66,d8b04cdb5218
"2019-09-22 03:00:00",110.45087544226,18.966666666667,410,66,d8b04cdb5218
"2019-09-22 03:00:08",110.45087544226,18.966666666667,410,66,d8b04cdb5218
"2019-09-22 04:00:00",110.45087544226,29.277777777778,410,66,d8b04cdb5218